GW1438 Weather Reports


Display with metric or nautical units.
time (UTC)temp
F
wind
direction
speed
MPH
gust
MPH
rain 1hr
in
rain 24hr
in
rain mn
in
humidity
%
barometer
mb
20260505185804 82 76 1.0 1.0 0.00 0.00 0.00 30 1011.6
20260505185300 83 14 3.0 5.0 0.00 0.00 0.00 30 1011.9
20260505184756 83 231 1.0 1.0 0.00 0.00 0.00 34 1012.1
20260505184254 82 306 5.0 7.0 0.00 0.00 0.00 32 1011.7
20260505183751 83 147 3.0 3.0 0.00 0.00 0.00 31 1011.9
20260505183248 83 217 2.0 3.0 0.00 0.00 0.00 33 1011.8
20260505182744 83 39 3.0 5.0 0.00 0.00 0.00 32 1012.1
20260505182241 84 331 3.0 3.0 0.00 0.00 0.00 32 1012.2
20260505181737 83 115 3.0 5.0 0.00 0.00 0.00 31 1012.3
20260505181235 83 230 1.0 1.0 0.00 0.00 0.00 33 1012.4
20260505180731 82 18 2.0 2.0 0.00 0.00 0.00 32 1012.2
20260505180228 82 238 2.0 2.0 0.00 0.00 0.00 34 1012.2
20260505175724 83 22 2.0 3.0 0.00 0.00 0.00 33 1012.3
20260505175221 83 322 3.0 3.0 0.00 0.00 0.00 33 1012.4
20260505174712 82 249 1.0 1.0 0.00 0.00 0.00 33 1012.5
20260505174209 82 326 2.0 2.0 0.00 0.00 0.00 33 1012.4
20260505173705 82 173 1.0 1.0 0.00 0.00 0.00 38 1012.4
20260505173202 82 319 2.0 2.0 0.00 0.00 0.00 38 1012.7
20260505172659 81 231 1.0 1.0 0.00 0.00 0.00 39 1012.6
20260505172156 80 194 2.0 2.0 0.00 0.00 0.00 44 1012.8
20260505171655 81 260 1.0 2.0 0.00 0.00 0.00 41 1012.7
20260505171153 81 239 1.0 1.0 0.00 0.00 0.00 40 1013.0
20260505170650 81 217 1.0 2.0 0.00 0.00 0.00 39 1012.9
20260505170146 81 209 1.0 1.0 0.00 0.00 0.00 41 1013.0
20260505165646 81 257 2.0 2.0 0.00 0.00 0.00 40 1013.0
20260505165143 80 221 2.0 2.0 0.00 0.00 0.00 40 1013.1
20260505164638 80 312 1.0 1.0 0.00 0.00 0.00 40 1013.0
20260505164136 81 294 0.0 1.0 0.00 0.00 0.00 39 1013.4
20260505163634 81 87 2.0 2.0 0.00 0.00 0.00 37 1013.4
20260505163132 81 173 1.0 2.0 0.00 0.00 0.00 39 1013.6
20260505162629 80 232 0.0 1.0 0.00 0.00 0.00 40 1013.3
20260505162127 80 151 1.0 1.0 0.00 0.00 0.00 39 1013.7
20260505161623 80 232 2.0 3.0 0.00 0.00 0.00 40 1013.8
20260505161120 79 0 2.0 3.0 0.00 0.00 0.00 41 1013.9
20260505160618 79 231 1.0 2.0 0.00 0.00 0.00 41 1013.6
20260505160115 80 298 2.0 2.0 0.00 0.00 0.00 40 1013.9
20260505153055 78 235 1.0 1.0 0.00 0.00 0.00 43 1013.9
20260505152551 79 346 2.0 5.0 0.00 0.00 0.00 43 1014.0
20260505152047 78 196 1.0 1.0 0.00 0.00 0.00 43 1014.0
20260505151542 77 176 1.0 1.0 0.00 0.00 0.00 43 1013.7
20260505151040 79 300 2.0 2.0 0.00 0.00 0.00 43 1013.8
20260505150536 77 213 1.0 1.0 0.00 0.00 0.00 48 1013.7
20260505140502 73 254 1.0 1.0 0.00 0.00 0.00 49 1013.9
20260505124915 66 181 1.0 1.0 0.00 0.00 0.00 56 1014.3
20260505124412 66 156 1.0 2.0 0.00 0.00 0.00 55 1014.6
20260505123908 66 222 0.0 0.0 0.00 0.00 0.00 56 1014.4
20260505123405 66 187 0.0 1.0 0.00 0.00 0.00 56 1014.4
20260505122900 65 209 1.0 1.0 0.00 0.00 0.00 57 1014.5
20260505122358 64 49 1.0 2.0 0.00 0.00 0.00 57 1014.3
20260505121854 63 234 0.0 0.0 0.00 0.00 0.00 60 1014.3
20260505121352 63 103 1.0 1.0 0.00 0.00 0.00 60 1014.2
20260505120847 62 281 1.0 1.0 0.00 0.00 0.00 60 1014.2
20260505120344 62 274 0.0 1.0 0.00 0.00 0.00 62 1014.2
20260505115843 62 261 1.0 1.0 0.00 0.00 0.00 62 1014.2
20260505115340 61 155 1.0 1.0 0.00 0.00 0.00 61 1014.1
20260505114838 61 122 1.0 1.0 0.00 0.00 0.00 62 1014.1
20260505114334 61 334 1.0 2.0 0.00 0.00 0.00 62 1014.1
20260505113830 60 235 0.0 0.0 0.00 0.00 0.00 63 1013.8
20260505113327 60 231 1.0 1.0 0.00 0.00 0.00 63 1013.9
20260505112823 60 22 1.0 2.0 0.00 0.00 0.00 63 1013.9
20260505112320 60 184 1.0 1.0 0.00 0.00 0.00 63 1013.9
20260505111816 60 228 0.0 0.0 0.00 0.00 0.00 64 1014.0
20260505111312 60 224 0.0 0.0 0.00 0.00 0.00 64 1013.9
20260505110808 59 210 0.0 1.0 0.00 0.00 0.00 65 1013.6
20260505110306 59 293 1.0 1.0 0.00 0.00 0.00 65 1013.8
20260505101739 57 222 0.0 1.0 0.00 0.00 0.00 70 1013.3
20260505101235 57 219 0.0 0.0 0.00 0.00 0.00 70 1013.1
20260505100732 57 222 0.0 0.0 0.00 0.00 0.00 70 1013.1
20260505100229 57 228 0.0 0.0 0.00 0.00 0.00 70 1013.0
20260505095724 57 218 0.0 0.0 0.00 0.00 0.00 71 1013.0
20260505095222 57 228 0.0 0.0 0.00 0.00 0.00 71 1013.0
20260505094717 57 223 0.0 0.0 0.00 0.00 0.00 71 1012.9
20260505094214 57 221 0.0 0.0 0.00 0.00 0.00 71 1012.9
20260505093710 57 213 0.0 0.0 0.00 0.00 0.00 70 1013.1
20260505093208 57 223 0.0 0.0 0.00 0.00 0.00 70 1013.0
20260505092704 57 217 0.0 0.0 0.00 0.00 0.00 70 1012.8
20260505092204 58 216 0.0 0.0 0.00 0.00 0.00 69 1013.0
20260505091700 58 237 0.0 0.0 0.00 0.00 0.00 69 1012.9
20260505091158 58 216 0.0 0.0 0.00 0.00 0.00 69 1012.8
20260505090655 58 208 0.0 0.0 0.00 0.00 0.00 69 1012.7
20260505090154 59 192 0.0 1.0 0.00 0.00 0.00 68 1012.9
20260505085651 59 211 0.0 0.0 0.00 0.00 0.00 68 1012.8
20260505085149 59 140 1.0 1.0 0.00 0.00 0.00 68 1013.0
20260505084646 59 175 1.0 1.0 0.00 0.00 0.00 68 1012.8
20260505084145 59 215 0.0 0.0 0.00 0.00 0.00 68 1012.9
20260505083642 59 160 0.0 0.0 0.00 0.00 0.00 68 1012.9
20260505083138 59 208 0.0 0.0 0.00 0.00 0.00 68 1012.8
20260505082634 59 206 0.0 0.0 0.00 0.00 0.00 69 1013.1
20260505082131 59 217 0.0 0.0 0.00 0.00 0.00 68 1012.8
20260505081627 59 260 0.0 1.0 0.00 0.00 0.00 68 1012.6
20260505081125 59 230 0.0 0.0 0.00 0.00 0.00 68 1012.8
20260505080621 59 222 0.0 0.0 0.00 0.00 0.00 68 1012.9
20260505080117 59 223 0.0 0.0 0.00 0.00 0.00 68 1012.7
20260505075614 59 213 0.0 0.0 0.00 0.00 0.00 68 1012.6
20260505075110 59 231 0.0 0.0 0.00 0.00 0.00 67 1012.8
20260505074607 59 235 0.0 0.0 0.00 0.00 0.00 68 1012.8
20260505074104 59 219 0.0 0.0 0.00 0.00 0.00 68 1012.7
20260505073602 59 222 0.0 0.0 0.00 0.00 0.00 67 1012.7
20260505073100 60 222 0.0 0.0 0.00 0.00 0.00 68 1012.7
20260505072555 60 221 0.0 0.0 0.00 0.00 0.00 66 1012.5
20260505072052 60 272 1.0 1.0 0.00 0.00 0.00 66 1012.7
20260505071548 60 215 0.0 0.0 0.00 0.00 0.00 66 1012.7
20260505071046 60 234 0.0 1.0 0.00 0.00 0.00 66 1012.6
20260505070543 60 226 0.0 0.0 0.00 0.00 0.00 66 1012.4
20260505070039 60 228 0.0 0.0 0.00 0.00 0.00 66 1012.5
20260505065535 60 225 0.0 0.0 0.00 0.00 0.00 66 1012.3
20260505065032 60 229 0.0 0.0 0.00 0.00 0.00 66 1012.5
20260505064528 60 221 0.0 0.0 0.00 0.00 0.00 67 1012.4
20260505064027 60 216 0.0 0.0 0.00 0.00 0.00 65 1012.6
20260505063524 61 203 0.0 0.0 0.00 0.00 0.00 65 1012.5
20260505063020 60 222 0.0 0.0 0.00 0.00 0.00 65 1012.4
20260505062517 60 225 0.0 0.0 0.00 0.00 0.00 66 1012.5
20260505062014 59 230 0.0 0.0 0.00 0.00 0.00 67 1012.6
20260505061512 59 208 0.0 1.0 0.00 0.00 0.00 68 1012.7
20260505061009 58 224 0.0 0.0 0.00 0.00 0.00 69 1012.4
20260505060506 57 225 0.0 0.0 0.00 0.00 0.00 71 1012.6
20260505060002 57 219 0.0 0.0 0.00 0.00 0.00 72 1012.6
20260505055458 57 220 0.0 0.0 0.00 0.00 0.00 72 1012.5
20260505054955 57 219 0.0 0.0 0.00 0.00 0.00 72 1012.5
20260505054453 58 219 0.0 0.0 0.00 0.00 0.00 71 1012.6
20260505053950 58 219 0.0 0.0 0.00 0.00 0.00 70 1012.6
20260505053447 59 220 0.0 0.0 0.00 0.00 0.00 69 1012.7
20260505052944 59 220 0.0 0.0 0.00 0.00 0.00 68 1012.6
20260505052441 59 224 0.0 0.0 0.00 0.00 0.00 69 1012.6
20260505051938 60 217 0.0 0.0 0.00 0.00 0.00 67 1012.7
20260505051435 60 219 0.0 0.0 0.00 0.00 0.00 66 1012.7
20260505050933 61 219 0.0 0.0 0.00 0.00 0.00 64 1012.8
20260505050431 62 218 0.0 0.0 0.00 0.00 0.00 63 1012.6
20260505041359 61 238 0.0 1.0 0.00 0.00 0.00 61 1012.7
20260505040856 60 264 0.0 0.0 0.00 0.00 0.00 62 1012.7
20260505040354 60 231 0.0 1.0 0.00 0.00 0.00 64 1012.8
20260505035850 60 223 0.0 0.0 0.00 0.00 0.00 65 1012.6
20260505035345 60 220 0.0 0.0 0.00 0.00 0.00 64 1012.5
20260505034844 60 217 0.0 0.0 0.00 0.00 0.00 63 1012.5
20260505034340 61 214 0.0 0.0 0.00 0.00 0.00 62 1012.5
20260505033837 61 205 0.0 0.0 0.00 0.00 0.00 61 1012.5
20260505033334 61 223 0.0 0.0 0.00 0.00 0.00 60 1012.8
20260505032832 62 223 0.0 0.0 0.00 0.00 0.00 59 1012.6
20260505032328 63 222 0.0 0.0 0.00 0.00 0.00 58 1012.7
20260505031825 63 225 0.0 0.0 0.00 0.00 0.00 56 1012.8
20260505031322 64 216 0.0 0.0 0.00 0.00 0.00 55 1012.5
20260505030819 64 221 0.0 0.0 0.00 0.00 0.00 54 1012.3
20260505030315 65 214 0.0 0.0 0.00 0.00 0.00 53 1012.5
20260505025810 65 226 0.0 0.0 0.00 0.00 0.00 53 1012.3
20260505025308 65 212 0.0 1.0 0.00 0.00 0.00 52 1012.4
20260505024807 65 233 0.0 0.0 0.00 0.00 0.00 52 1012.4
20260505024304 66 222 0.0 1.0 0.00 0.00 0.00 52 1012.7
20260505023801 66 215 0.0 0.0 0.00 0.00 0.00 51 1012.5
20260505023258 66 233 0.0 1.0 0.00 0.00 0.00 50 1012.7
20260505022755 66 231 0.0 1.0 0.00 0.00 0.00 51 1012.6
20260505022252 65 277 1.0 1.0 0.00 0.00 0.00 52 1012.6
20260505021749 65 211 0.0 0.0 0.00 0.00 0.00 53 1012.5
20260505021246 66 218 0.0 0.0 0.00 0.00 0.00 51 1012.4
20260505020742 66 214 0.0 0.0 0.00 0.00 0.00 50 1012.4
20260505020237 66 227 0.0 1.0 0.00 0.00 0.00 49 1012.3
20260505015734 67 200 0.0 1.0 0.00 0.00 0.00 49 1012.5
20260505015231 67 223 0.0 0.0 0.00 0.00 0.00 49 1012.4
20260505014728 67 146 3.0 3.0 0.00 0.00 0.00 48 1012.4
20260505014226 67 209 0.0 0.0 0.00 0.00 0.00 48 1012.3
20260505013722 68 193 0.0 1.0 0.00 0.00 0.00 47 1012.1
20260505013219 68 230 0.0 0.0 0.00 0.00 0.00 47 1012.0
20260505012718 68 225 0.0 0.0 0.00 0.00 0.00 47 1011.9
20260505012215 68 207 0.0 1.0 0.00 0.00 0.00 48 1011.8
20260505011710 68 244 0.0 1.0 0.00 0.00 0.00 47 1011.9
20260505011208 68 219 0.0 0.0 0.00 0.00 0.00 47 1011.9
20260505010703 68 216 0.0 0.0 0.00 0.00 0.00 46 1011.9
20260505010200 68 261 1.0 1.0 0.00 0.00 0.00 47 1012.0
20260505005656 68 166 0.0 1.0 0.00 0.00 0.00 46 1011.9
20260505005153 69 212 0.0 0.0 0.00 0.00 0.00 45 1011.7
20260505004650 69 223 0.0 0.0 0.00 0.00 0.00 45 1011.8
20260505004147 69 207 0.0 0.0 0.00 0.00 0.00 44 1011.7
20260505003644 69 191 0.0 1.0 0.00 0.00 0.00 43 1011.6
20260505003142 70 258 1.0 1.0 0.00 0.00 0.00 43 1011.8
20260505002637 70 0 1.0 2.0 0.00 0.00 0.00 43 1011.6
20260505002136 70 222 0.0 0.0 0.00 0.00 0.00 43 1011.7
20260505001633 70 176 1.0 2.0 0.00 0.00 0.00 42 1011.7
20260505001130 71 270 0.0 1.0 0.00 0.00 0.00 41 1011.8
20260505000627 71 268 1.0 1.0 0.00 0.00 0.00 41 1011.9
20260505000125 71 216 1.0 1.0 0.00 0.00 0.00 41 1011.6
20260504235621 71 236 0.0 1.0 0.00 0.00 0.00 41 1011.6
20260504235118 71 22 1.0 1.0 0.00 0.00 0.00 40 1011.6
20260504234615 71 198 0.0 1.0 0.00 0.00 0.00 40 1011.5
20260504234112 71 176 1.0 2.0 0.00 0.00 0.00 40 1011.3
20260504233608 71 200 0.0 1.0 0.00 0.00 0.00 40 1011.4
20260504233104 72 235 1.0 2.0 0.00 0.00 0.00 39 1011.2
20260504232602 72 248 0.0 0.0 0.00 0.00 0.00 40 1011.4
20260504232059 72 197 1.0 1.0 0.00 0.00 0.00 39 1011.3
20260504231555 72 169 1.0 1.0 0.00 0.00 0.00 39 1011.3
20260504231051 72 236 0.0 0.0 0.00 0.00 0.00 39 1011.3
20260504230547 72 27 2.0 2.0 0.00 0.00 0.00 39 1011.6
20260504230047 72 234 0.0 1.0 0.00 0.00 0.00 39 1011.4
20260504225543 73 207 1.0 1.0 0.00 0.00 0.00 38 1011.3
20260504225040 73 0 1.0 3.0 0.00 0.00 0.00 39 1011.4
20260504224537 73 147 1.0 1.0 0.00 0.00 0.00 38 1011.2
20260504224034 73 201 1.0 1.0 0.00 0.00 0.00 38 1011.3
20260504223531 73 258 1.0 1.0 0.00 0.00 0.00 37 1011.3
20260504223027 73 234 1.0 2.0 0.00 0.00 0.00 37 1011.5
20260504222524 73 234 1.0 2.0 0.00 0.00 0.00 38 1011.4
20260504222021 75 39 1.0 1.0 0.00 0.00 0.00 36 1011.2
20260504221518 75 264 0.0 1.0 0.00 0.00 0.00 35 1011.0
20260504221015 76 165 1.0 2.0 0.00 0.00 0.00 34 1011.0
20260504220512 76 189 1.0 2.0 0.00 0.00 0.00 35 1011.3
20260504220009 75 219 0.0 0.0 0.00 0.00 0.00 35 1011.3
20260504215505 75 205 0.0 1.0 0.00 0.00 0.00 34 1011.3
20260504215003 76 351 1.0 2.0 0.00 0.00 0.00 33 1011.1
20260504214458 76 315 1.0 1.0 0.00 0.00 0.00 34 1011.2
20260504213955 76 209 1.0 1.0 0.00 0.00 0.00 36 1011.4
20260504213451 76 26 2.0 2.0 0.00 0.00 0.00 33 1011.4
20260504212949 77 275 0.0 1.0 0.00 0.00 0.00 35 1011.3
20260504212444 77 251 1.0 1.0 0.00 0.00 0.00 34 1011.2
20260504211942 76 138 2.0 3.0 0.00 0.00 0.00 33 1011.4
20260504211438 75 212 0.0 1.0 0.00 0.00 0.00 37 1011.4
20260504210936 76 201 1.0 2.0 0.00 0.00 0.00 35 1011.4
20260504210433 77 208 0.0 1.0 0.00 0.00 0.00 34 1011.5
20260504205930 76 302 1.0 1.0 0.00 0.00 0.00 36 1011.3
20260504205427 76 162 2.0 5.0 0.00 0.00 0.00 34 1011.5
20260504204925 76 214 1.0 1.0 0.00 0.00 0.00 34 1011.5
20260504204423 76 127 1.0 1.0 0.00 0.00 0.00 33 1011.5
20260504203922 76 4 2.0 2.0 0.00 0.00 0.00 32 1011.3
20260504203420 76 241 0.0 1.0 0.00 0.00 0.00 37 1011.5
20260504202915 76 207 3.0 5.0 0.00 0.00 0.00 34 1011.7
20260504202412 76 350 2.0 2.0 0.00 0.00 0.00 34 1011.6
20260504201909 76 215 0.0 1.0 0.00 0.00 0.00 33 1011.6
20260504201406 76 359 2.0 2.0 0.00 0.00 0.00 34 1011.5
20260504200903 76 203 2.0 2.0 0.00 0.00 0.00 34 1012.0
20260504200400 76 9 2.0 2.0 0.00 0.00 0.00 35 1011.8
20260504195856 76 329 1.0 2.0 0.00 0.00 0.00 33 1011.8
20260504195352 76 289 2.0 3.0 0.00 0.00 0.00 34 1011.8
20260504194849 75 243 0.0 1.0 0.00 0.00 0.00 40 1012.1
20260504194345 75 164 1.0 2.0 0.00 0.00 0.00 35 1012.2
20260504193841 75 275 1.0 1.0 0.00 0.00 0.00 34 1012.0
20260504193338 75 233 1.0 1.0 0.00 0.00 0.00 37 1012.2
20260504192837 76 209 0.0 0.0 0.00 0.00 0.00 36 1012.4
20260504192335 75 98 0.0 2.0 0.00 0.00 0.00 38 1012.4
20260504191833 75 265 2.0 2.0 0.00 0.00 0.00 37 1012.5
20260504191330 74 269 2.0 2.0 0.00 0.00 0.00 35 1012.6
20260504190826 74 305 1.0 3.0 0.00 0.00 0.00 37 1012.5
20260504190322 74 217 1.0 1.0 0.00 0.00 0.00 35 1013.0